User: anonymous   Login
Location: Brno
(49.2000°N, 16.6330°E)
Time: 01:06:11
(UTC+01:00)
Language:

RESURS DK-1 - Orbit

View from above orbital plane
View from above orbital plane
View from above satellite
View from above satellite

Ground track
Ground track

The orbit data is extracted from the following two-line orbital elements,

1 29228U 06021A   15065.76185793  .00001201  00000-0  10067-3 0  9996
2 29228 069.9368 057.3702 0006245 212.1710 205.1964 15.01291534482979
Epoch (UTC): 06 March 2015 18:17:04
Eccentricity: 0.0006245
inclination: 69.9368°
perigee height: 558 km
apogee height: 567 km
right ascension of ascending node: 57.3702°
argument of perigee: 212.1710°
revolutions per day: 15.01291534
mean anomaly at epoch: 205.1964°
orbit number at epoch: 48297

The dashed part of the orbit path shows where the satellite is in the earth's shadow,  

DLR